Time,TemperatureF,DewpointF,PressureIn,WindDirection,WindDirectionDegrees,WindSpeedMPH,WindSpeedGustMPH,Humidity,HourlyPrecipIn,Conditions,Clouds,dailyrainin,SoftwareType,DateUTC
2013-03-13 00:00:00,30.2,22.2,30.30,NNE,23,6.3,8.1,72,0.00,,,0.00,WUHU216HW,2013-03-13 05:00:00,
2013-03-13 00:05:00,30.2,22.6,30.30,NW,315,4.3,9.6,73,0.00,,,0.00,WUHU216HW,2013-03-13 05:05:00,
2013-03-13 00:10:00,30.2,22.2,30.31,NNE,23,8.1,9.6,72,0.00,,,0.00,WUHU216HW,2013-03-13 05:10:00,
2013-03-13 00:15:00,30.1,22.4,30.31,North,0,5.8,8.7,73,0.00,,,0.00,WUHU216HW,2013-03-13 05:15:00,
2013-03-13 00:20:00,30.1,22.4,30.31,NE,45,3.4,8.7,73,0.00,,,0.00,WUHU216HW,2013-03-13 05:20:00,
2013-03-13 00:25:00,29.9,22.2,30.31,NE,45,2.7,7.4,73,0.00,,,0.00,WUHU216HW,2013-03-13 05:25:00,
2013-03-13 00:30:00,29.9,22.2,30.31,North,0,4.9,7.4,73,0.00,,,0.00,WUHU216HW,2013-03-13 05:30:00,
2013-03-13 00:35:00,29.7,22.1,30.31,WNW,293,0.7,7.2,73,0.00,,,0.00,WUHU216HW,2013-03-13 05:35:00,
2013-03-13 00:40:00,29.5,21.9,30.31,NE,45,3.4,7.2,73,0.00,,,0.00,WUHU216HW,2013-03-13 05:40:00,
2013-03-13 00:45:00,29.2,21.9,30.31,North,0,2.9,4.9,74,0.00,,,0.00,WUHU216HW,2013-03-13 05:45:00,
2013-03-13 00:50:00,28.8,21.9,30.31,North,0,1.1,2.9,75,0.00,,,0.00,WUHU216HW,2013-03-13 05:50:00,
2013-03-13 00:55:00,28.8,21.9,30.31,North,0,3.4,4.7,75,0.00,,,0.00,WUHU216HW,2013-03-13 05:55:00,
2013-03-13 01:00:00,29.0,22.1,30.31,North,0,1.8,4.7,75,0.00,,,0.00,WUHU216HW,2013-03-13 06:00:00,
2013-03-13 01:05:00,28.6,21.3,30.31,NW,315,1.1,4.5,74,0.00,,,0.00,WUHU216HW,2013-03-13 06:05:00,
2013-03-13 01:10:00,27.9,20.7,30.31,NNW,338,1.3,2.5,74,0.00,,,0.00,WUHU216HW,2013-03-13 06:10:00,
2013-03-13 01:15:00,27.0,19.8,30.31,NW,315,1.1,2.5,74,0.00,,,0.00,WUHU216HW,2013-03-13 06:15:00,
2013-03-13 01:20:00,26.3,19.4,30.31,NW,315,2.0,2.0,75,0.00,,,0.00,WUHU216HW,2013-03-13 06:20:00,
2013-03-13 01:25:00,25.9,19.6,30.31,NW,315,1.8,2.0,77,0.00,,,0.00,WUHU216HW,2013-03-13 06:25:00,
2013-03-13 01:30:00,25.6,19.4,30.31,NNW,338,1.1,2.0,77,0.00,,,0.00,WUHU216HW,2013-03-13 06:30:00,
2013-03-13 01:35:00,25.4,19.2,30.31,NW,315,1.3,2.2,77,0.00,,,0.00,WUHU216HW,2013-03-13 06:35:00,
2013-03-13 01:40:00,25.0,19.2,30.31,NW,315,1.1,2.2,78,0.00,,,0.00,WUHU216HW,2013-03-13 06:40:00,
2013-03-13 01:45:00,25.2,19.6,30.31,NW,315,1.6,1.8,79,0.00,,,0.00,WUHU216HW,2013-03-13 06:45:00,
2013-03-13 01:50:00,25.0,19.4,30.31,WNW,293,1.6,2.0,79,0.00,,,0.00,WUHU216HW,2013-03-13 06:50:00,
2013-03-13 01:55:00,24.8,19.3,30.31,West,270,0.4,2.0,79,0.00,,,0.00,WUHU216HW,2013-03-13 06:55:00,
2013-03-13 02:00:00,24.3,18.7,30.31,West,270,1.3,1.8,79,0.00,,,0.00,WUHU216HW,2013-03-13 07:00:00,
2013-03-13 02:05:00,23.9,18.4,30.31,West,270,1.1,1.3,79,0.00,,,0.00,WUHU216HW,2013-03-13 07:05:00,
2013-03-13 02:10:00,23.8,18.5,30.31,NW,315,2.0,2.0,80,0.00,,,0.00,WUHU216HW,2013-03-13 07:10:00,
2013-03-13 02:15:00,23.9,19.0,30.32,WNW,293,1.8,2.2,81,0.00,,,0.00,WUHU216HW,2013-03-13 07:15:00,
2013-03-13 02:20:00,23.6,18.4,30.32,West,270,1.6,2.2,80,0.00,,,0.00,WUHU216HW,2013-03-13 07:20:00,
2013-03-13 02:25:00,23.4,18.5,30.32,NW,315,2.5,2.5,81,0.00,,,0.00,WUHU216HW,2013-03-13 07:25:00,
2013-03-13 02:30:00,23.8,19.1,30.32,WNW,293,2.7,3.1,82,0.00,,,0.00,WUHU216HW,2013-03-13 07:30:00,
2013-03-13 02:35:00,23.8,18.5,30.32,West,270,1.6,3.1,80,0.00,,,0.00,WUHU216HW,2013-03-13 07:35:00,
2013-03-13 02:40:00,23.4,18.5,30.32,WNW,293,1.8,1.8,81,0.00,,,0.00,WUHU216HW,2013-03-13 07:40:00,
2013-03-13 02:45:00,23.4,18.7,30.32,NW,315,2.9,2.9,82,0.00,,,0.00,WUHU216HW,2013-03-13 07:45:00,
2013-03-13 02:50:00,23.8,19.1,30.32,NW,315,2.5,2.9,82,0.00,,,0.00,WUHU216HW,2013-03-13 07:50:00,
2013-03-13 02:55:00,23.6,18.9,30.32,West,270,1.8,2.7,82,0.00,,,0.00,WUHU216HW,2013-03-13 07:55:00,
2013-03-13 03:00:00,23.4,18.5,30.32,West,270,1.8,2.0,81,0.00,,,0.00,WUHU216HW,2013-03-13 08:00:00,
2013-03-13 03:08:00,23.2,18.5,30.32,WNW,293,3.1,3.1,82,0.00,,,0.00,WUHU216HW,2013-03-13 08:08:00,
2013-03-13 03:13:00,23.2,18.5,30.32,West,270,1.1,3.1,82,0.00,,,0.00,WUHU216HW,2013-03-13 08:13:00,
2013-03-13 03:18:00,23.0,18.4,30.32,West,270,0.9,2.9,82,0.00,,,0.00,WUHU216HW,2013-03-13 08:18:00,
2013-03-13 03:23:00,23.0,18.4,30.32,West,270,0.9,1.6,82,0.00,,,0.00,WUHU216HW,2013-03-13 08:23:00,
2013-03-13 03:28:00,22.7,18.0,30.32,West,270,0.9,1.8,82,0.00,,,0.00,WUHU216HW,2013-03-13 08:28:00,
2013-03-13 03:33:00,22.7,18.0,30.32,West,270,1.1,1.8,82,0.00,,,0.00,WUHU216HW,2013-03-13 08:33:00,
2013-03-13 03:38:00,22.7,18.0,30.32,West,270,1.1,1.8,82,0.00,,,0.00,WUHU216HW,2013-03-13 08:38:00,
2013-03-13 03:43:00,22.5,17.8,30.32,West,270,1.8,1.8,82,0.00,,,0.00,WUHU216HW,2013-03-13 08:43:00,
2013-03-13 03:48:00,22.7,18.3,30.32,WNW,293,3.8,3.8,83,0.00,,,0.00,WUHU216HW,2013-03-13 08:48:00,
2013-03-13 03:53:00,23.0,18.9,30.32,NW,315,2.5,3.8,84,0.00,,,0.00,WUHU216HW,2013-03-13 08:53:00,
2013-03-13 03:58:00,23.2,19.1,30.32,WNW,293,2.5,2.9,84,0.00,,,0.00,WUHU216HW,2013-03-13 08:58:00,
2013-03-13 04:03:00,23.0,18.9,30.32,NW,315,1.8,2.9,84,0.00,,,0.00,WUHU216HW,2013-03-13 09:03:00,
2013-03-13 04:08:00,23.0,18.6,30.32,NW,315,1.3,2.9,83,0.00,,,0.00,WUHU216HW,2013-03-13 09:08:00,
2013-03-13 04:13:00,23.0,18.6,30.32,NW,315,0.2,1.6,83,0.00,,,0.00,WUHU216HW,2013-03-13 09:13:00,
2013-03-13 04:18:00,22.1,17.5,30.32,NW,315,0.0,0.9,82,0.00,,,0.00,WUHU216HW,2013-03-13 09:18:00,
2013-03-13 04:23:00,21.6,17.2,30.32,ENE,68,1.1,1.1,83,0.00,,,0.00,WUHU216HW,2013-03-13 09:23:00,
2013-03-13 04:28:00,21.4,16.7,30.32,NE,45,0.0,1.1,82,0.00,,,0.00,WUHU216HW,2013-03-13 09:28:00,
2013-03-13 04:33:00,21.1,16.4,30.33,NE,45,0.0,1.1,82,0.00,,,0.00,WUHU216HW,2013-03-13 09:33:00,
2013-03-13 04:38:00,20.9,16.2,30.33,NE,45,0.0,0.0,82,0.00,,,0.00,WUHU216HW,2013-03-13 09:38:00,
2013-03-13 04:43:00,20.5,16.1,30.32,NE,45,0.0,0.4,83,0.00,,,0.00,WUHU216HW,2013-03-13 09:43:00,
2013-03-13 04:48:00,20.5,16.1,30.32,NE,45,0.0,0.4,83,0.00,,,0.00,WUHU216HW,2013-03-13 09:48:00,
2013-03-13 04:53:00,20.2,15.5,30.32,NE,45,0.0,0.0,82,0.00,,,0.00,WUHU216HW,2013-03-13 09:53:00,
2013-03-13 04:58:00,20.0,15.3,30.32,NE,45,0.0,0.0,82,0.00,,,0.00,WUHU216HW,2013-03-13 09:58:00,
2013-03-13 05:03:00,19.8,15.4,30.33,West,270,0.9,0.9,83,0.00,,,0.00,WUHU216HW,2013-03-13 10:03:00,
2013-03-13 05:08:00,19.8,15.7,30.33,WNW,293,1.8,1.8,84,0.00,,,0.00,WUHU216HW,2013-03-13 10:08:00,
2013-03-13 05:13:00,20.0,15.8,30.32,WNW,293,0.9,1.8,84,0.00,,,0.00,WUHU216HW,2013-03-13 10:13:00,
2013-03-13 05:18:00,20.2,16.0,30.33,NNW,338,0.4,1.8,84,0.00,,,0.00,WUHU216HW,2013-03-13 10:18:00,
2013-03-13 05:23:00,20.0,15.8,30.33,NNW,338,0.0,0.9,84,0.00,,,0.00,WUHU216HW,2013-03-13 10:23:00,
2013-03-13 05:28:00,19.6,15.2,30.33,WNW,293,0.4,0.4,83,0.00,,,0.00,WUHU216HW,2013-03-13 10:28:00,
2013-03-13 05:33:00,19.4,15.3,30.33,NW,315,0.9,1.6,84,0.00,,,0.00,WUHU216HW,2013-03-13 10:33:00,
2013-03-13 05:38:00,19.8,15.7,30.33,NNW,338,0.2,1.6,84,0.00,,,0.00,WUHU216HW,2013-03-13 10:38:00,
2013-03-13 05:43:00,20.0,16.1,30.33,NNW,338,0.4,1.1,85,0.00,,,0.00,WUHU216HW,2013-03-13 10:43:00,
2013-03-13 05:48:00,20.2,16.0,30.33,NNE,23,1.1,1.6,84,0.00,,,0.00,WUHU216HW,2013-03-13 10:48:00,
2013-03-13 05:53:00,20.2,16.0,30.33,North,0,0.0,1.6,84,0.00,,,0.00,WUHU216HW,2013-03-13 10:53:00,
2013-03-13 05:59:00,19.4,15.0,30.33,North,0,0.0,0.4,83,0.00,,,0.00,WUHU216HW,2013-03-13 10:59:00,
2013-03-13 06:04:00,19.1,14.7,30.34,WSW,248,0.7,0.9,83,0.00,,,0.00,WUHU216HW,2013-03-13 11:04:00,
2013-03-13 06:09:00,19.1,14.7,30.34,WSW,248,0.0,0.9,83,0.00,,,0.00,WUHU216HW,2013-03-13 11:09:00,
2013-03-13 06:14:00,18.9,14.5,30.34,WSW,248,0.0,0.4,83,0.00,,,0.00,WUHU216HW,2013-03-13 11:14:00,
2013-03-13 06:19:00,18.9,14.8,30.34,WSW,248,0.0,0.2,84,0.00,,,0.00,WUHU216HW,2013-03-13 11:19:00,
2013-03-13 06:24:00,18.9,14.8,30.34,WSW,248,0.7,0.7,84,0.00,,,0.00,WUHU216HW,2013-03-13 11:24:00,
2013-03-13 06:29:00,18.7,14.6,30.34,NW,315,0.4,1.1,84,0.00,,,0.00,WUHU216HW,2013-03-13 11:29:00,
2013-03-13 06:34:00,19.1,15.5,30.34,WNW,293,1.8,1.8,86,0.00,,,0.00,WUHU216HW,2013-03-13 11:34:00,
2013-03-13 06:39:00,19.1,15.5,30.35,West,270,0.4,1.8,86,0.00,,,0.00,WUHU216HW,2013-03-13 11:39:00,
2013-03-13 06:44:00,19.1,15.5,30.35,West,270,0.9,1.6,86,0.00,,,0.00,WUHU216HW,2013-03-13 11:44:00,
2013-03-13 06:49:00,19.1,15.2,30.35,West,270,0.7,1.8,85,0.00,,,0.00,WUHU216HW,2013-03-13 11:49:00,
2013-03-13 06:54:00,19.3,15.4,30.36,West,270,1.8,1.8,85,0.00,,,0.00,WUHU216HW,2013-03-13 11:54:00,
2013-03-13 06:59:00,19.3,15.7,30.35,WNW,293,1.3,1.8,86,0.00,,,0.00,WUHU216HW,2013-03-13 11:59:00,
2013-03-13 07:04:00,19.4,15.8,30.36,West,270,1.3,1.6,86,0.00,,,0.00,WUHU216HW,2013-03-13 12:04:00,
2013-03-13 07:09:00,19.4,15.8,30.36,West,270,2.0,2.0,86,0.00,,,0.00,WUHU216HW,2013-03-13 12:09:00,
2013-03-13 07:14:00,19.8,16.2,30.36,West,270,1.8,3.1,86,0.00,,,0.00,WUHU216HW,2013-03-13 12:14:00,
2013-03-13 07:19:00,20.0,16.4,30.36,West,270,1.8,3.1,86,0.00,,,0.00,WUHU216HW,2013-03-13 12:19:00,
2013-03-13 07:24:00,20.0,16.4,30.37,West,270,2.5,2.5,86,0.00,,,0.00,WUHU216HW,2013-03-13 12:24:00,
2013-03-13 07:29:00,20.3,17.0,30.37,West,270,3.1,3.4,87,0.00,,,0.00,WUHU216HW,2013-03-13 12:29:00,
2013-03-13 07:34:00,20.5,17.2,30.37,West,270,2.5,4.3,87,0.00,,,0.00,WUHU216HW,2013-03-13 12:34:00,
2013-03-13 07:39:00,20.9,17.3,30.36,WNW,293,2.2,4.3,86,0.00,,,0.00,WUHU216HW,2013-03-13 12:39:00,
2013-03-13 07:44:00,20.5,16.7,30.36,West,270,0.7,2.9,85,0.00,,,0.00,WUHU216HW,2013-03-13 12:44:00,
2013-03-13 07:49:00,20.5,16.7,30.36,NW,315,0.7,2.2,85,0.00,,,0.00,WUHU216HW,2013-03-13 12:49:00,
2013-03-13 07:54:00,20.5,16.4,30.36,WNW,293,0.0,1.1,84,0.00,,,0.00,WUHU216HW,2013-03-13 12:54:00,
2013-03-13 07:59:00,20.2,16.0,30.36,NNE,23,0.4,0.4,84,0.00,,,0.00,WUHU216HW,2013-03-13 12:59:00,
2013-03-13 08:04:00,21.1,17.5,30.37,NNE,23,1.8,1.8,86,0.00,,,0.00,WUHU216HW,2013-03-13 13:04:00,
2013-03-13 08:09:00,22.0,18.4,30.37,NE,45,1.1,1.8,86,0.00,,,0.00,WUHU216HW,2013-03-13 13:09:00,
2013-03-13 08:14:00,23.0,19.2,30.36,ENE,68,1.8,2.9,85,0.00,,,0.00,WUHU216HW,2013-03-13 13:14:00,
2013-03-13 08:19:00,24.3,20.4,30.37,NNE,23,0.0,2.9,85,0.00,,,0.00,WUHU216HW,2013-03-13 13:19:00,
2013-03-13 08:24:00,25.0,20.9,30.38,WNW,293,1.3,1.8,84,0.00,,,0.00,WUHU216HW,2013-03-13 13:24:00,
2013-03-13 08:29:00,25.6,21.1,30.38,NNW,338,1.1,2.2,83,0.00,,,0.00,WUHU216HW,2013-03-13 13:29:00,
2013-03-13 08:34:00,25.9,21.2,30.39,NW,315,2.5,3.6,82,0.00,,,0.00,WUHU216HW,2013-03-13 13:34:00,
2013-03-13 08:39:00,26.1,21.3,30.39,NW,315,4.5,4.5,82,0.00,,,0.00,WUHU216HW,2013-03-13 13:39:00,
2013-03-13 08:44:00,26.1,21.6,30.39,NW,315,1.3,4.5,83,0.00,,,0.00,WUHU216HW,2013-03-13 13:44:00,
2013-03-13 08:49:00,26.5,21.7,30.38,NE,45,0.2,3.8,82,0.00,,,0.00,WUHU216HW,2013-03-13 13:49:00,
2013-03-13 08:54:00,26.8,22.0,30.39,NNW,338,1.8,3.6,82,0.00,,,0.00,WUHU216HW,2013-03-13 13:54:00,
2013-03-13 08:59:00,27.0,21.9,30.39,NNW,338,2.7,2.7,81,0.00,,,0.00,WUHU216HW,2013-03-13 13:59:00,
2013-03-13 09:04:00,27.4,22.2,30.40,NNE,23,3.1,3.1,81,0.00,,,0.00,WUHU216HW,2013-03-13 14:04:00,
2013-03-13 09:09:00,27.9,22.8,30.40,NW,315,2.5,4.7,81,0.00,,,0.00,WUHU216HW,2013-03-13 14:09:00,
2013-03-13 09:14:00,28.1,22.4,30.40,North,0,2.9,4.7,79,0.00,,,0.00,WUHU216HW,2013-03-13 14:14:00,
2013-03-13 09:19:00,28.8,23.1,30.40,North,0,2.5,4.3,79,0.00,,,0.00,WUHU216HW,2013-03-13 14:19:00,
2013-03-13 09:24:00,29.2,23.5,30.41,West,270,2.0,5.8,79,0.00,,,0.00,WUHU216HW,2013-03-13 14:24:00,
2013-03-13 09:29:00,29.5,23.1,30.41,North,0,2.2,5.8,77,0.00,,,0.00,WUHU216HW,2013-03-13 14:29:00,
2013-03-13 09:34:00,29.9,23.5,30.41,WNW,293,2.9,3.4,77,0.00,,,0.00,WUHU216HW,2013-03-13 14:34:00,
2013-03-13 09:39:00,30.1,23.4,30.42,NNW,338,0.9,3.8,76,0.00,,,0.00,WUHU216HW,2013-03-13 14:39:00,
2013-03-13 09:44:00,30.1,23.0,30.42,NW,315,3.4,3.8,75,0.00,,,0.00,WUHU216HW,2013-03-13 14:44:00,
2013-03-13 09:49:00,30.4,23.8,30.42,WNW,293,4.5,4.5,76,0.00,,,0.00,WUHU216HW,2013-03-13 14:49:00,
2013-03-13 09:54:00,30.8,23.1,30.42,NW,315,3.4,6.5,73,0.00,,,0.00,WUHU216HW,2013-03-13 14:54:00,
2013-03-13 09:59:00,31.1,23.5,30.42,NNE,23,1.3,6.5,73,0.00,,,0.00,WUHU216HW,2013-03-13 14:59:00,
2013-03-13 10:04:00,31.3,23.9,30.41,NW,315,4.7,4.7,74,0.00,,,0.00,WUHU216HW,2013-03-13 15:04:00,
2013-03-13 10:09:00,32.2,23.9,30.42,NNW,338,2.2,5.4,71,0.00,,,0.00,WUHU216HW,2013-03-13 15:09:00,
2013-03-13 10:14:00,32.2,23.6,30.42,NNW,338,0.4,5.4,70,0.00,,,0.00,WUHU216HW,2013-03-13 15:14:00,
2013-03-13 10:19:00,32.8,24.0,30.42,NW,315,5.4,6.0,70,0.00,,,0.00,WUHU216HW,2013-03-13 15:19:00,
2013-03-13 10:24:00,32.9,23.5,30.42,WNW,293,0.7,6.0,68,0.00,,,0.00,WUHU216HW,2013-03-13 15:24:00,
2013-03-13 10:29:00,33.5,23.6,30.42,NNE,23,4.5,4.9,67,0.00,,,0.00,WUHU216HW,2013-03-13 15:29:00,
2013-03-13 10:34:00,33.7,23.0,30.42,WNW,293,4.7,4.9,65,0.00,,,0.00,WUHU216HW,2013-03-13 15:34:00,
2013-03-13 10:39:00,33.8,22.9,30.41,NNW,338,4.7,4.7,64,0.00,,,0.00,WUHU216HW,2013-03-13 15:39:00,
2013-03-13 10:44:00,34.2,22.5,30.41,North,0,2.5,4.7,62,0.00,,,0.00,WUHU216HW,2013-03-13 15:44:00,
2013-03-13 10:49:00,34.2,22.5,30.42,NNE,23,1.6,4.3,62,0.00,,,0.00,WUHU216HW,2013-03-13 15:49:00,
2013-03-13 10:54:00,34.6,22.9,30.42,NW,315,2.5,4.5,62,0.00,,,0.00,WUHU216HW,2013-03-13 15:54:00,
2013-03-13 10:59:00,34.9,22.5,30.42,NNE,23,4.3,4.5,60,0.00,,,0.00,WUHU216HW,2013-03-13 15:59:00,
2013-03-13 11:04:00,35.1,22.7,30.42,NNE,23,5.4,5.4,60,0.00,,,0.00,WUHU216HW,2013-03-13 16:04:00,
2013-03-13 11:09:00,35.5,23.0,30.43,North,0,3.4,5.4,60,0.00,,,0.00,WUHU216HW,2013-03-13 16:09:00,
2013-03-13 11:14:00,35.6,22.8,30.43,NE,45,2.7,5.1,59,0.00,,,0.00,WUHU216HW,2013-03-13 16:14:00,
2013-03-13 11:19:00,36.0,23.6,30.43,NNE,23,0.4,5.1,60,0.00,,,0.00,WUHU216HW,2013-03-13 16:19:00,
2013-03-13 11:24:00,36.4,23.9,30.43,NE,45,3.6,6.9,60,0.00,,,0.00,WUHU216HW,2013-03-13 16:24:00,
2013-03-13 11:29:00,36.9,24.0,30.42,NNW,338,2.5,6.9,59,0.00,,,0.00,WUHU216HW,2013-03-13 16:29:00,
2013-03-13 11:34:00,37.8,24.8,30.42,ENE,68,0.9,6.5,59,0.00,,,0.00,WUHU216HW,2013-03-13 16:34:00,
2013-03-13 11:39:00,37.8,23.9,30.42,NW,315,2.7,6.3,57,0.00,,,0.00,WUHU216HW,2013-03-13 16:39:00,
2013-03-13 11:44:00,37.8,23.1,30.42,North,0,2.2,6.3,55,0.00,,,0.00,WUHU216HW,2013-03-13 16:44:00,
2013-03-13 11:49:00,38.5,24.1,30.41,NNW,338,3.4,5.1,56,0.00,,,0.00,WUHU216HW,2013-03-13 16:49:00,
2013-03-13 11:54:00,38.9,23.6,30.42,NW,315,2.0,5.1,54,0.00,,,0.00,WUHU216HW,2013-03-13 16:54:00,
2013-03-13 11:59:00,39.2,23.4,30.42,NNW,338,1.1,9.2,53,0.00,,,0.00,WUHU216HW,2013-03-13 16:59:00,
2013-03-13 12:04:00,39.6,23.3,30.42,North,0,2.5,9.2,52,0.00,,,0.00,WUHU216HW,2013-03-13 17:04:00,
2013-03-13 12:09:00,39.6,23.3,30.42,NE,45,4.5,7.2,52,0.00,,,0.00,WUHU216HW,2013-03-13 17:09:00,
2013-03-13 12:14:00,39.4,22.8,30.42,North,0,7.4,7.4,51,0.00,,,0.00,WUHU216HW,2013-03-13 17:14:00,
2013-03-13 12:19:00,39.2,22.6,30.42,North,0,2.5,7.4,51,0.00,,,0.00,WUHU216HW,2013-03-13 17:19:00,
2013-03-13 12:24:00,39.2,23.4,30.42,North,0,4.0,4.7,53,0.00,,,0.00,WUHU216HW,2013-03-13 17:24:00,
2013-03-13 12:29:00,39.4,23.1,30.42,NNE,23,1.3,5.1,52,0.00,,,0.00,WUHU216HW,2013-03-13 17:29:00,
2013-03-13 12:34:00,40.0,23.2,30.42,NNE,23,2.0,6.0,51,0.00,,,0.00,WUHU216HW,2013-03-13 17:34:00,
2013-03-13 12:39:00,40.0,23.2,30.42,NE,45,2.0,6.0,51,0.00,,,0.00,WUHU216HW,2013-03-13 17:39:00,
2013-03-13 12:44:00,40.1,23.9,30.42,North,0,1.6,3.4,52,0.00,,,0.00,WUHU216HW,2013-03-13 17:44:00,
2013-03-13 12:49:00,40.3,23.6,30.42,NE,45,0.4,4.0,51,0.00,,,0.00,WUHU216HW,2013-03-13 17:49:00,
2013-03-13 12:54:00,40.3,23.1,30.41,NNE,23,1.1,4.0,50,0.00,,,0.00,WUHU216HW,2013-03-13 17:54:00,
2013-03-13 12:59:00,40.7,23.4,30.41,WNW,293,1.8,3.6,50,0.00,,,0.00,WUHU216HW,2013-03-13 17:59:00,
2013-03-13 13:04:00,40.7,23.0,30.41,West,270,2.0,3.6,49,0.00,,,0.00,WUHU216HW,2013-03-13 18:04:00,
2013-03-13 13:09:00,41.0,23.8,30.41,West,270,0.4,3.6,50,0.00,,,0.00,WUHU216HW,2013-03-13 18:09:00,
2013-03-13 13:14:00,41.4,23.0,30.41,NNE,23,2.5,4.0,48,0.00,,,0.00,WUHU216HW,2013-03-13 18:14:00,
2013-03-13 13:19:00,41.0,23.2,30.41,North,0,3.1,4.0,49,0.00,,,0.00,WUHU216HW,2013-03-13 18:19:00,
2013-03-13 13:24:00,40.9,22.6,30.41,North,0,1.3,3.1,48,0.00,,,0.00,WUHU216HW,2013-03-13 18:24:00,
2013-03-13 13:29:00,40.9,23.0,30.40,NE,45,2.9,2.9,49,0.00,,,0.00,WUHU216HW,2013-03-13 18:29:00,
2013-03-13 13:34:00,40.3,22.6,30.40,ESE,113,3.4,4.0,49,0.00,,,0.00,WUHU216HW,2013-03-13 18:34:00,
2013-03-13 13:39:00,40.5,23.3,30.40,East,90,2.5,4.0,50,0.00,,,0.00,WUHU216HW,2013-03-13 18:39:00,
2013-03-13 13:44:00,40.7,23.0,30.40,ESE,113,1.8,3.4,49,0.00,,,0.00,WUHU216HW,2013-03-13 18:44:00,
2013-03-13 13:49:00,41.0,23.2,30.39,ENE,68,4.0,4.0,49,0.00,,,0.00,WUHU216HW,2013-03-13 18:49:00,
2013-03-13 13:54:00,40.5,22.8,30.39,North,0,5.1,5.1,49,0.00,,,0.00,WUHU216HW,2013-03-13 18:54:00,
2013-03-13 13:59:00,40.5,22.8,30.38,NNE,23,1.8,5.1,49,0.00,,,0.00,WUHU216HW,2013-03-13 18:59:00,
2013-03-13 14:04:00,40.5,21.7,30.38,ENE,68,2.9,3.6,47,0.00,,,0.00,WUHU216HW,2013-03-13 19:04:00,
2013-03-13 14:09:00,40.9,23.0,30.38,East,90,2.5,3.6,49,0.00,,,0.00,WUHU216HW,2013-03-13 19:09:00,
2013-03-13 14:14:00,41.8,23.9,30.38,NE,45,2.0,3.1,49,0.00,,,0.00,WUHU216HW,2013-03-13 19:14:00,
2013-03-13 14:19:00,42.7,25.8,30.38,SSE,158,4.7,4.7,51,0.00,,,0.00,WUHU216HW,2013-03-13 19:19:00,
2013-03-13 14:24:00,43.4,23.3,30.37,ESE,113,0.9,4.7,45,0.00,,,0.00,WUHU216HW,2013-03-13 19:24:00,
2013-03-13 14:29:00,43.2,23.8,30.37,SSE,158,0.0,2.2,46,0.00,,,0.00,WUHU216HW,2013-03-13 19:29:00,
2013-03-13 14:34:00,43.9,24.9,30.37,SSW,203,5.1,5.1,47,0.00,,,0.00,WUHU216HW,2013-03-13 19:34:00,
2013-03-13 14:39:00,44.5,24.8,30.36,SSE,158,4.7,5.1,46,0.00,,,0.00,WUHU216HW,2013-03-13 19:39:00,
2013-03-13 14:44:00,45.2,24.9,30.36,SW,225,2.2,4.9,45,0.00,,,0.00,WUHU216HW,2013-03-13 19:44:00,
2013-03-13 14:49:00,45.7,25.5,30.36,SW,225,1.1,4.9,45,0.00,,,0.00,WUHU216HW,2013-03-13 19:49:00,
2013-03-13 14:54:00,45.7,23.9,30.35,WSW,248,1.6,2.5,42,0.00,,,0.00,WUHU216HW,2013-03-13 19:54:00,
2013-03-13 14:59:00,45.7,23.9,30.35,ESE,113,2.2,2.9,42,0.00,,,0.00,WUHU216HW,2013-03-13 19:59:00,
2013-03-13 15:04:00,45.9,23.0,30.34,SW,225,2.2,2.9,40,0.00,,,0.00,WUHU216HW,2013-03-13 20:04:00,
2013-03-13 15:09:00,46.1,24.7,30.34,East,90,4.3,4.3,43,0.00,,,0.00,WUHU216HW,2013-03-13 20:09:00,
2013-03-13 15:14:00,45.9,24.6,30.33,ESE,113,4.9,4.9,43,0.00,,,0.00,WUHU216HW,2013-03-13 20:14:00,
2013-03-13 15:19:00,46.1,25.2,30.33,SE,135,3.6,6.9,44,0.00,,,0.00,WUHU216HW,2013-03-13 20:19:00,
2013-03-13 15:24:00,46.4,23.9,30.33,ESE,113,1.8,6.9,41,0.00,,,0.00,WUHU216HW,2013-03-13 20:24:00,
2013-03-13 15:29:00,46.6,24.7,30.33,NE,45,2.5,5.4,42,0.00,,,0.00,WUHU216HW,2013-03-13 20:29:00,
2013-03-13 15:34:00,46.4,25.6,30.33,ESE,113,3.8,6.9,44,0.00,,,0.00,WUHU216HW,2013-03-13 20:34:00,
2013-03-13 15:39:00,46.3,24.8,30.33,ESE,113,2.0,6.9,43,0.00,,,0.00,WUHU216HW,2013-03-13 20:39:00,
2013-03-13 15:44:00,46.3,23.2,30.32,ESE,113,3.8,5.8,40,0.00,,,0.00,WUHU216HW,2013-03-13 20:44:00,
2013-03-13 15:49:00,46.4,25.0,30.32,SSW,203,5.1,6.3,43,0.00,,,0.00,WUHU216HW,2013-03-13 20:49:00,
2013-03-13 15:54:00,47.2,24.0,30.32,South,180,5.4,6.3,40,0.00,,,0.00,WUHU216HW,2013-03-13 20:54:00,
2013-03-13 15:59:00,47.9,24.7,30.32,SSW,203,3.8,5.4,40,0.00,,,0.00,WUHU216HW,2013-03-13 20:59:00,
2013-03-13 16:04:00,48.6,24.7,30.32,South,180,2.2,5.4,39,0.00,,,0.00,WUHU216HW,2013-03-13 21:04:00,
2013-03-13 16:09:00,48.6,24.0,30.32,SSW,203,2.9,5.1,38,0.00,,,0.00,WUHU216HW,2013-03-13 21:09:00,
2013-03-13 16:14:00,49.1,24.5,30.32,SE,135,4.0,4.3,38,0.00,,,0.00,WUHU216HW,2013-03-13 21:14:00,
2013-03-13 16:19:00,50.2,26.8,30.32,South,180,4.0,4.3,40,0.00,,,0.00,WUHU216HW,2013-03-13 21:19:00,
2013-03-13 16:24:00,51.7,26.7,30.31,SW,225,4.0,6.3,38,0.00,,,0.00,WUHU216HW,2013-03-13 21:24:00,
2013-03-13 16:29:00,52.4,26.7,30.31,SSW,203,3.8,7.2,37,0.00,,,0.00,WUHU216HW,2013-03-13 21:29:00,
2013-03-13 16:34:00,53.3,27.6,30.31,SSE,158,3.1,7.2,37,0.00,,,0.00,WUHU216HW,2013-03-13 21:34:00,
2013-03-13 16:39:00,54.4,28.4,30.31,SSE,158,4.0,4.9,37,0.00,,,0.00,WUHU216HW,2013-03-13 21:39:00,
2013-03-13 16:44:00,54.4,26.4,30.31,South,180,3.8,6.5,34,0.00,,,0.00,WUHU216HW,2013-03-13 21:44:00,
2013-03-13 16:49:00,54.5,25.1,30.30,SE,135,3.4,6.5,32,0.00,,,0.00,WUHU216HW,2013-03-13 21:49:00,
2013-03-13 16:54:00,53.3,24.1,30.30,SSW,203,4.7,6.9,32,0.00,,,0.00,WUHU216HW,2013-03-13 21:54:00,
2013-03-13 16:59:00,53.1,24.0,30.30,SSW,203,3.4,6.9,32,0.00,,,0.00,WUHU216HW,2013-03-13 21:59:00,
2013-03-13 17:04:00,53.8,25.2,30.30,SE,135,3.8,5.4,33,0.00,,,0.00,WUHU216HW,2013-03-13 22:04:00,
2013-03-13 17:09:00,54.4,25.7,30.30,SSW,203,6.5,6.5,33,0.00,,,0.00,WUHU216HW,2013-03-13 22:09:00,
2013-03-13 17:14:00,54.0,24.7,30.30,South,180,6.3,8.5,32,0.00,,,0.00,WUHU216HW,2013-03-13 22:14:00,
2013-03-13 17:19:00,53.6,25.1,30.30,SW,225,3.4,8.5,33,0.00,,,0.00,WUHU216HW,2013-03-13 22:19:00,
2013-03-13 17:24:00,53.8,25.2,30.30,SW,225,4.9,6.5,33,0.00,,,0.00,WUHU216HW,2013-03-13 22:24:00,
2013-03-13 17:29:00,51.1,22.9,30.30,SE,135,3.1,5.4,33,0.00,,,0.00,WUHU216HW,2013-03-13 22:29:00,
2013-03-13 17:34:00,49.3,23.9,30.31,South,180,1.8,7.2,37,0.00,,,0.00,WUHU216HW,2013-03-13 22:34:00,
2013-03-13 17:39:00,48.8,24.1,30.30,SE,135,3.8,7.2,38,0.00,,,0.00,WUHU216HW,2013-03-13 22:39:00,
2013-03-13 17:44:00,48.6,24.7,30.31,SW,225,5.6,5.6,39,0.00,,,0.00,WUHU216HW,2013-03-13 22:44:00,
2013-03-13 17:49:00,48.2,24.4,30.31,SSE,158,4.5,5.6,39,0.00,,,0.00,WUHU216HW,2013-03-13 22:49:00,
2013-03-13 17:54:00,47.5,23.7,30.31,ESE,113,3.4,4.7,39,0.00,,,0.00,WUHU216HW,2013-03-13 22:54:00,
2013-03-13 17:59:00,47.2,24.0,30.30,SSE,158,3.4,6.0,40,0.00,,,0.00,WUHU216HW,2013-03-13 22:59:00,
2013-03-13 18:04:00,47.0,23.9,30.30,WSW,248,3.4,6.0,40,0.00,,,0.00,WUHU216HW,2013-03-13 23:04:00,
2013-03-13 18:09:00,46.6,24.1,30.30,South,180,3.8,5.8,41,0.00,,,0.00,WUHU216HW,2013-03-13 23:09:00,
2013-03-13 18:14:00,46.4,23.9,30.30,SSE,158,2.5,6.3,41,0.00,,,0.00,WUHU216HW,2013-03-13 23:14:00,
2013-03-13 18:19:00,46.3,24.8,30.30,SSE,158,2.9,6.3,43,0.00,,,0.00,WUHU216HW,2013-03-13 23:19:00,
2013-03-13 18:25:00,46.1,24.7,30.30,SSE,158,3.8,4.0,43,0.00,,,0.00,WUHU216HW,2013-03-13 23:25:00,
2013-03-13 18:30:00,45.9,24.6,30.29,SSW,203,2.9,4.0,43,0.00,,,0.00,WUHU216HW,2013-03-13 23:30:00,
2013-03-13 18:35:00,45.9,24.6,30.29,South,180,3.8,5.4,43,0.00,,,0.00,WUHU216HW,2013-03-13 23:35:00,
2013-03-13 18:39:00,45.7,24.9,30.29,SSW,203,2.5,5.4,44,0.00,,,0.00,WUHU216HW,2013-03-13 23:39:00,
2013-03-13 18:44:00,45.7,24.4,30.29,South,180,2.9,4.0,43,0.00,,,0.00,WUHU216HW,2013-03-13 23:44:00,
2013-03-13 18:49:00,45.0,24.3,30.29,SE,135,4.3,4.3,44,0.00,,,0.00,WUHU216HW,2013-03-13 23:49:00,
2013-03-13 18:54:00,44.6,23.9,30.29,South,180,2.5,4.3,44,0.00,,,0.00,WUHU216HW,2013-03-13 23:54:00,
2013-03-13 18:59:00,43.7,23.7,30.29,South,180,4.0,4.0,45,0.00,,,0.00,WUHU216HW,2013-03-13 23:59:00,
2013-03-13 19:04:00,43.2,23.8,30.29,South,180,3.1,4.0,46,0.00,,,0.00,WUHU216HW,2013-03-14 00:04:00,
2013-03-13 19:09:00,42.8,23.4,30.29,South,180,1.8,3.8,46,0.00,,,0.00,WUHU216HW,2013-03-14 00:09:00,
2013-03-13 19:14:00,42.3,23.4,30.29,SSW,203,2.0,3.4,47,0.00,,,0.00,WUHU216HW,2013-03-14 00:14:00,
2013-03-13 19:20:00,41.8,23.9,30.28,SE,135,2.0,2.7,49,0.00,,,0.00,WUHU216HW,2013-03-14 00:20:00,
2013-03-13 19:25:00,40.9,23.6,30.28,SE,135,1.1,2.7,50,0.00,,,0.00,WUHU216HW,2013-03-14 00:25:00,
2013-03-13 19:29:00,40.7,23.9,30.28,SE,135,1.8,3.1,51,0.00,,,0.00,WUHU216HW,2013-03-14 00:29:00,
2013-03-13 19:34:00,40.3,24.5,30.27,ESE,113,2.5,3.1,53,0.00,,,0.00,WUHU216HW,2013-03-14 00:34:00,
2013-03-13 19:39:00,40.0,23.7,30.27,ESE,113,2.0,2.5,52,0.00,,,0.00,WUHU216HW,2013-03-14 00:39:00,
2013-03-13 19:44:00,39.2,23.4,30.27,SSE,158,2.5,2.5,53,0.00,,,0.00,WUHU216HW,2013-03-14 00:44:00,
2013-03-13 19:49:00,38.7,23.9,30.27,ESE,113,1.6,3.1,55,0.00,,,0.00,WUHU216HW,2013-03-14 00:49:00,
2013-03-13 19:54:00,38.3,24.0,30.27,SE,135,2.5,3.1,56,0.00,,,0.00,WUHU216HW,2013-03-14 00:54:00,
2013-03-13 19:59:00,37.8,24.3,30.27,SE,135,1.8,2.7,58,0.00,,,0.00,WUHU216HW,2013-03-14 00:59:00,
2013-03-13 20:04:00,37.6,24.6,30.27,ESE,113,2.5,2.5,59,0.00,,,0.00,WUHU216HW,2013-03-14 01:04:00,
2013-03-13 20:09:00,37.4,24.8,30.27,ESE,113,1.8,2.5,60,0.00,,,0.00,WUHU216HW,2013-03-14 01:09:00,
2013-03-13 20:15:00,37.4,25.2,30.26,SE,135,3.4,3.4,61,0.00,,,0.00,WUHU216HW,2013-03-14 01:15:00,
2013-03-13 20:20:00,37.6,25.4,30.27,SSE,158,3.4,3.8,61,0.00,,,0.00,WUHU216HW,2013-03-14 01:20:00,
2013-03-13 20:25:00,37.6,25.4,30.26,SE,135,1.8,3.8,61,0.00,,,0.00,WUHU216HW,2013-03-14 01:25:00,
2013-03-13 20:30:00,37.4,25.2,30.26,SE,135,3.6,3.6,61,0.00,,,0.00,WUHU216HW,2013-03-14 01:30:00,
2013-03-13 20:35:00,37.1,24.9,30.26,SSE,158,3.8,3.8,61,0.00,,,0.00,WUHU216HW,2013-03-14 01:35:00,
2013-03-13 20:40:00,36.9,25.5,30.26,SE,135,2.2,3.8,63,0.00,,,0.00,WUHU216HW,2013-03-14 01:40:00,
2013-03-13 20:45:00,36.7,25.3,30.26,SE,135,1.8,2.7,63,0.00,,,0.00,WUHU216HW,2013-03-14 01:45:00,
2013-03-13 20:50:00,36.5,24.8,30.26,SSE,158,1.6,3.4,62,0.00,,,0.00,WUHU216HW,2013-03-14 01:50:00,
2013-03-13 20:55:00,36.4,24.9,30.26,SSE,158,1.8,3.4,63,0.00,,,0.00,WUHU216HW,2013-03-14 01:55:00,
2013-03-13 21:00:00,36.4,25.4,30.26,SE,135,1.3,3.8,64,0.00,,,0.00,WUHU216HW,2013-03-14 02:00:00,
2013-03-13 21:05:00,36.0,24.7,30.26,SSE,158,2.5,3.8,63,0.00,,,0.00,WUHU216HW,2013-03-14 02:05:00,
2013-03-13 21:10:00,35.6,24.7,30.26,SE,135,1.6,2.9,64,0.00,,,0.00,WUHU216HW,2013-03-14 02:10:00,
2013-03-13 21:15:00,35.1,24.1,30.26,SSE,158,2.5,2.9,64,0.00,,,0.00,WUHU216HW,2013-03-14 02:15:00,
2013-03-13 21:20:00,35.1,24.5,30.26,South,180,1.3,2.9,65,0.00,,,0.00,WUHU216HW,2013-03-14 02:20:00,
2013-03-13 21:25:00,34.9,23.9,30.25,SE,135,1.3,2.9,64,0.00,,,0.00,WUHU216HW,2013-03-14 02:25:00,
2013-03-13 21:30:00,34.7,23.8,30.25,SSE,158,2.7,3.4,64,0.00,,,0.00,WUHU216HW,2013-03-14 02:30:00,
2013-03-13 21:35:00,34.4,23.4,30.25,SSE,158,1.8,3.4,64,0.00,,,0.00,WUHU216HW,2013-03-14 02:35:00,
2013-03-13 21:40:00,34.2,23.9,30.25,SSE,158,1.8,3.1,66,0.00,,,0.00,WUHU216HW,2013-03-14 02:40:00,
2013-03-13 21:45:00,34.2,24.3,30.25,SE,135,2.5,3.1,67,0.00,,,0.00,WUHU216HW,2013-03-14 02:45:00,
2013-03-13 21:50:00,34.2,24.3,30.25,SE,135,1.3,3.1,67,0.00,,,0.00,WUHU216HW,2013-03-14 02:50:00,
2013-03-13 21:55:00,34.0,24.1,30.25,SE,135,2.2,3.4,67,0.00,,,0.00,WUHU216HW,2013-03-14 02:55:00,
2013-03-13 22:00:00,33.8,23.6,30.25,SSE,158,2.0,3.4,66,0.00,,,0.00,WUHU216HW,2013-03-14 03:00:00,
2013-03-13 22:05:00,33.8,23.9,30.24,SSE,158,2.5,4.0,67,0.00,,,0.00,WUHU216HW,2013-03-14 03:05:00,
2013-03-13 22:10:00,33.7,23.8,30.25,SE,135,3.4,4.7,67,0.00,,,0.00,WUHU216HW,2013-03-14 03:10:00,
2013-03-13 22:15:00,33.7,23.4,30.25,SSE,158,4.0,4.7,66,0.00,,,0.00,WUHU216HW,2013-03-14 03:15:00,
2013-03-13 22:20:00,33.5,23.6,30.25,SSW,203,2.7,4.5,67,0.00,,,0.00,WUHU216HW,2013-03-14 03:20:00,
2013-03-13 22:25:00,33.5,23.6,30.24,South,180,2.5,4.5,67,0.00,,,0.00,WUHU216HW,2013-03-14 03:25:00,
2013-03-13 22:30:00,33.3,23.5,30.24,SSE,158,2.5,5.1,67,0.00,,,0.00,WUHU216HW,2013-03-14 03:30:00,
2013-03-13 22:35:00,32.9,23.5,30.24,South,180,2.5,5.1,68,0.00,,,0.00,WUHU216HW,2013-03-14 03:35:00,
2013-03-13 22:40:00,32.9,23.5,30.24,South,180,2.0,4.0,68,0.00,,,0.00,WUHU216HW,2013-03-14 03:40:00,
2013-03-13 22:45:00,32.9,23.5,30.24,SSE,158,1.8,4.0,68,0.00,,,0.00,WUHU216HW,2013-03-14 03:45:00,
2013-03-13 22:50:00,32.8,23.3,30.24,South,180,1.6,2.9,68,0.00,,,0.00,WUHU216HW,2013-03-14 03:50:00,
2013-03-13 22:55:00,32.8,23.3,30.24,SSE,158,1.8,3.6,68,0.00,,,0.00,WUHU216HW,2013-03-14 03:55:00,
2013-03-13 23:00:00,32.8,23.3,30.24,SSE,158,2.5,3.8,68,0.00,,,0.00,WUHU216HW,2013-03-14 04:00:00,
2013-03-13 23:05:00,32.8,23.3,30.24,South,180,2.2,3.8,68,0.00,,,0.00,WUHU216HW,2013-03-14 04:05:00,
2013-03-13 23:10:00,32.8,23.3,30.24,SSE,158,2.7,3.8,68,0.00,,,0.00,WUHU216HW,2013-03-14 04:10:00,
2013-03-13 23:15:00,32.6,23.9,30.24,SE,135,1.6,3.8,70,0.00,,,0.00,WUHU216HW,2013-03-14 04:15:00,
2013-03-13 23:20:00,32.6,23.9,30.24,SE,135,2.0,3.4,70,0.00,,,0.00,WUHU216HW,2013-03-14 04:20:00,
2013-03-13 23:25:00,32.8,24.0,30.24,South,180,2.7,3.6,70,0.00,,,0.00,WUHU216HW,2013-03-14 04:25:00,
2013-03-13 23:30:00,33.1,24.7,30.24,SE,135,2.2,5.4,71,0.00,,,0.00,WUHU216HW,2013-03-14 04:30:00,
2013-03-13 23:35:00,33.3,24.6,30.24,SSE,158,4.3,5.4,70,0.00,,,0.00,WUHU216HW,2013-03-14 04:35:00,
2013-03-13 23:40:00,33.3,24.6,30.24,South,180,2.0,5.4,70,0.00,,,0.00,WUHU216HW,2013-03-14 04:40:00,
2013-03-13 23:45:00,33.3,24.6,30.23,SSE,158,5.4,6.7,70,0.00,,,0.00,WUHU216HW,2013-03-14 04:45:00,
2013-03-13 23:50:00,33.5,25.0,30.23,South,180,3.8,6.7,71,0.00,,,0.00,WUHU216HW,2013-03-14 04:50:00,
2013-03-13 23:55:00,33.5,24.7,30.23,SSE,158,3.4,5.8,70,0.00,,,0.00,WUHU216HW,2013-03-14 04:55:00,